Wind_Speed
10 10 10 10 10 10 12 12 12 11 11 9 9 8 8 8 8 8 7 7 7 6 6 5 5 5 5 6 6 6 6 6 6 6 7 7 7 7 6 7 7 7 7 7 7 7 8 8 8
12 12 12 12 11 12 13 14 13 13 12 10 9 9 9 9 9 9 8 8 8 7 6 6 5 5 6 6 7 7 7 7 7 7 8 8 8 7 7 7 8 8 8 8 9 9 9 9 9
14 14 14 13 13 14 15 15 15 13 12 11 11 10 10 10 9 10 9 9 8 8 7 6 6 6 7 7 7 8 9 9 9 9 8 8 8 8 8 8 9 9 10 9 9 10 10 10 10
15 15 15 15 16 17 17 16 15 13 13 13 12 11 10 10 10 10 9 9 8 8 8 8 7 8 8 8 9 9 10 10 10 10 10 10 10 10 10 10 11 11 11 10 10 11 11 11 11
16 16 16 16 17 18 18 17 16 14 14 14 13 12 12 11 11 10 10 10 10 9 9 8 8 8 9 9 10 11 11 11 11 11 11 11 10 10 11 11 11 11 12 12 12 12 12 12 13
16 17 17 17 18 18 17 17 16 15 15 14 14 13 13 13 13 12 11 11 11 11 11 10 11 11 11 11 11 12 12 12 12 12 12 12 12 12 13 13 13 13 13 14 14 13 13 13 14
16 16 17 18 18 17 17 17 17 16 16 15 14 14 14 14 14 13 12 12 12 12 12 12 12 12 12 12 12 12 12 13 13 13 13 13 13 13 14 14 14 15 15 15 15 15 14 14 14
14 15 17 17 16 17 17 17 17 17 17 16 16 16 16 15 14 14 14 13 13 13 13 13 12 13 13 14 14 14 13 13 13 14 15 15 14 14 15 16 16 16 17 16 17 16 16 15 15
12 14 15 16 16 17 18 18 17 17 17 17 17 17 17 16 15 15 15 15 15 14 13 13 13 14 14 14 14 14 14 14 15 15 15 16 16 16 17 17 17 17 18 17 17 17 17 17 17
12 13 15 15 16 16 17 18 17 17 18 18 18 18 18 17 16 16 15 15 15 15 15 15 14 14 14 14 15 15 15 15 16 16 17 18 18 18 19 18 18 18 19 18 18 18 18 18 18
12 13 14 15 16 16 16 17 18 18 18 18 18 18 18 18 18 17 16 16 16 16 16 16 16 15 15 15 16 17 17 17 17 18 18 18 19 19 19 20 20 19 19 20 20 19 19 19 19
13 13 14 14 15 16 16 17 18 18 18 19 19 19 19 18 19 18 17 17 17 17 17 17 17 16 17 17 17 17 18 18 18 19 19 20 20 21 21 21 21 20 20 20 20 20 20 20 20
12 13 13 14 15 16 16 17 18 18 19 19 20 20 20 19 18 18 18 18 17 17 18 18 17 17 17 17 17 17 18 18 19 20 20 22 22 22 22 21 21 21 21 21 22 21 20 21 21
12 12 13 14 14 16 17 17 17 17 18 18 19 19 20 19 18 17 18 18 18 18 18 18 17 17 16 16 16 17 18 18 20 20 20 21 22 21 21 21 21 21 21 21 21 21 22 22 21
12 12 12 13 14 15 16 16 17 17 18 18 18 18 18 18 17 17 18 18 18 18 18 17 17 16 16 16 17 18 18 19 19 20 20 21 21 22 22 22 22 22 21 21 22 22 23 23 23
10 10 11 12 14 14 15 15 16 17 17 18 18 18 19 19 19 18 17 17 17 18 18 18 18 17 17 17 18 18 19 20 20 21 21 22 22 22 22 22 22 23 22 22 22 23 23 23 23
8 9 10 11 13 13 14 15 16 17 18 18 19 18 17 18 18 18 17 17 17 18 18 18 18 19 18 18 18 19 20 21 21 21 21 22 22 22 22 22 23 23 23 23 23 23 23 23 23
8 8 9 10 11 12 13 14 15 15 16 17 17 17 17 18 19 18 18 17 17 18 19 18 18 19 19 19 18 19 20 21 20 21 22 21 21 22 22 22 23 23 23 23 23 23 23 23 23
7 7 8 9 10 11 11 12 13 13 15 16 16 17 17 18 19 19 19 18 18 18 19 19 19 20 20 19 19 19 20 20 20 21 21 21 21 21 22 22 22 22 23 22 22 22 22 22 22
6 7 8 9 10 11 11 12 13 13 13 14 15 16 18 18 19 19 19 19 18 19 19 20 20 19 19 20 19 19 19 19 19 21 20 20 21 21 21 22 21 21 22 22 21 21 21 21 22
6 6 7 9 10 10 10 10 11 12 13 13 14 15 16 18 19 18 18 18 18 19 19 19 19 19 19 19 19 19 18 18 18 18 18 20 20 20 20 20 21 21 22 22 21 21 21 22 22
5 6 6 7 8 9 9 9 11 11 12 13 14 14 14 15 17 17 16 16 17 17 18 18 18 17 17 17 18 18 18 18 18 18 18 18 19 20 20 20 20 21 22 22 22 21 22 22 22
5 5 5 6 7 8 8 8 10 10 10 11 12 13 13 13 14 15 15 14 15 16 16 16 16 15 15 15 16 17 17 17 17 17 17 18 19 20 20 21 21 21 21 20 20 21 22 22 22
5 5 5 5 6 7 8 8 9 10 10 10 10 11 11 12 13 14 14 14 14 14 14 14 14 14 14 15 15 15 16 16 17 17 18 19 20 20 20 20 20 19 19 18 18 19 20 21 22
4 4 4 4 5 7 9 9 10 10 10 10 10 11 10 10 11 12 12 13 13 13 13 13 14 14 14 14 15 16 16 17 17 19 19 20 20 19 18 18 18 19 19 19 19 20 21 23 24
4 4 4 5 6 7 9 9 10 10 10 10 10 9 10 10 10 10 11 12 12 13 13 13 13 13 14 14 15 16 17 17 18 19 19 18 17 16 16 17 19 19 20 20 21 22 23 24 24
4 4 5 6 7 7 8 10 10 10 10 9 9 9 9 9 9 9 9 10 11 13 14 14 13 13 14 14 15 16 17 18 18 17 17 16 16 16 17 18 19 19 20 20 21 22 23 24 23
4 5 5 6 7 7 8 9 9 9 9 9 8 9 9 8 8 8 9 10 11 12 13 13 13 13 14 15 15 16 17 17 17 16 15 14 15 16 17 18 19 20 20 21 22 23 23 23 24
6 6 6 6 7 7 8 9 10 10 9 9 8 8 8 7 7 8 9 9 10 11 12 12 14 15 15 16 15 15 16 16 15 14 14 15 16 17 18 18 18 19 20 20 20 22 23 23 24
7 7 7 8 9 9 9 11 10 10 9 8 7 7 7 7 7 8 8 9 10 11 12 12 12 13 13 13 14 15 15 15 14 14 15 16 17 17 17 17 17 18 19 20 20 21 22 23 24
Wind_Direction
236 233 226 226 229 230 236 240 237 237 239 243 245 245 243 250 252 255 257 261 265 271 257 245 248 247 255 263 268 266 266 270 271 273 274 273 274 278 281 286 291 294 296 295 293 291 288 288 289
238 237 233 229 227 233 241 244 243 244 245 248 249 249 247 249 253 256 258 260 262 264 255 245 253 260 265 275 279 277 276 278 276 276 278 276 276 278 281 285 288 290 291 290 289 288 285 286 286
238 237 235 232 230 230 238 243 246 248 247 248 251 252 249 252 255 259 261 260 257 257 257 255 260 269 270 276 286 283 281 282 281 280 280 281 280 281 282 285 287 287 287 287 286 285 284 284 284
239 237 236 235 235 236 240 242 244 245 245 247 250 251 253 252 255 256 257 255 253 256 259 258 263 271 274 276 282 284 282 280 279 279 281 282 282 283 283 286 286 285 284 284 284 284 282 281 280
239 236 235 236 239 241 243 243 243 244 246 248 248 250 254 256 257 258 260 259 256 255 260 261 264 268 274 280 283 283 281 276 275 278 278 280 283 284 284 284 284 285 286 286 285 285 283 281 280
238 236 235 236 240 240 242 244 244 245 247 249 250 250 255 259 261 263 261 260 260 260 264 265 268 269 270 274 277 281 280 275 274 277 279 280 283 283 283 281 282 284 284 285 285 285 282 282 281
239 238 237 237 241 241 241 244 246 247 246 248 251 253 256 259 259 261 262 261 263 265 265 265 267 269 270 272 273 275 275 276 274 274 277 278 282 285 284 283 283 282 283 284 285 284 282 281 280
242 241 241 240 241 241 242 243 245 244 245 250 252 254 256 260 259 259 259 262 264 268 270 269 267 270 274 273 270 270 272 273 275 276 276 275 278 282 284 284 283 282 283 283 283 284 282 280 281
245 242 244 243 242 243 243 244 245 246 248 250 253 255 259 261 261 258 257 260 263 267 269 271 268 269 274 273 270 270 272 273 273 275 276 277 279 280 281 283 282 282 283 283 284 282 283 281 281
247 244 245 246 245 246 246 245 245 247 248 250 251 255 258 261 262 260 258 260 263 266 268 269 269 269 270 271 271 274 272 272 272 274 276 278 279 280 279 279 282 283 283 282 282 281 280 280 279
247 246 248 249 249 250 250 247 247 248 248 250 250 253 256 259 262 260 259 262 263 265 268 268 266 269 269 271 274 276 273 272 273 272 274 275 276 277 278 279 281 282 283 282 282 281 279 280 279
247 246 247 248 250 251 251 249 249 250 251 252 251 253 255 259 260 261 263 265 264 264 265 267 267 268 269 270 273 275 274 273 272 272 271 272 275 277 278 277 278 280 283 284 284 281 280 280 279
247 248 246 247 248 249 249 247 250 252 253 254 253 253 255 258 258 257 261 263 264 263 265 266 266 267 269 269 272 273 272 273 274 276 277 277 279 279 279 279 280 283 285 286 285 283 282 281 280
249 247 245 246 246 247 248 249 250 251 254 255 255 255 257 259 260 261 263 264 264 265 264 263 262 265 268 270 272 273 272 276 278 278 280 280 282 283 283 282 283 284 285 286 286 283 281 281 282
257 251 248 248 248 249 250 250 252 252 254 254 256 256 255 256 258 261 264 264 265 264 264 261 262 266 269 270 270 273 273 277 278 279 282 281 281 280 281 283 283 282 283 285 284 283 282 282 282
258 254 251 249 247 249 249 252 253 255 256 256 256 258 254 255 258 261 263 265 265 265 264 264 265 267 270 270 270 272 274 275 276 279 282 283 281 281 280 282 283 281 282 284 284 283 282 282 281
258 255 251 255 255 252 251 253 257 258 258 259 259 257 255 257 259 261 264 267 265 266 266 266 267 266 268 269 270 272 273 275 276 277 281 283 284 282 279 280 283 283 283 284 283 283 281 282 283
251 251 256 259 260 257 253 254 258 260 259 260 260 259 258 259 261 263 266 267 266 266 265 267 267 269 268 269 270 274 274 274 274 276 279 282 284 284 283 281 281 282 284 284 283 283 283 285 285
255 258 262 262 268 266 264 265 263 263 265 264 264 261 261 262 262 263 265 266 267 265 265 267 268 271 269 269 270 274 275 275 275 275 279 281 284 285 286 283 283 282 284 283 283 284 283 286 286
263 266 268 269 269 267 268 271 271 271 269 268 267 263 262 265 264 265 266 268 267 265 266 267 267 268 269 270 272 274 276 277 281 281 282 284 285 286 289 288 285 284 285 284 283 284 285 286 285
270 271 272 274 273 271 270 272 272 275 274 270 269 268 266 265 266 266 268 267 265 265 267 269 267 267 269 270 273 275 277 279 284 286 283 284 284 287 291 291 288 286 286 285 284 284 285 286 286
287 285 280 276 279 278 277 281 283 283 281 278 274 271 270 267 267 267 267 266 263 264 265 266 267 271 271 272 275 276 278 282 286 286 285 284 285 288 291 291 291 288 286 286 284 282 283 284 285
289 293 288 279 283 283 282 282 284 290 292 288 281 279 274 270 267 268 266 261 260 263 263 262 265 269 275 277 278 280 282 284 287 287 287 286 288 290 291 292 291 290 288 287 287 285 285 286 285
293 302 301 296 298 291 283 284 290 296 297 295 296 289 282 272 269 267 264 259 258 260 261 264 266 271 275 278 282 285 286 287 287 287 289 289 289 290 291 290 290 291 291 289 288 289 287 286 286
299 314 320 311 303 290 289 294 292 298 296 298 298 293 287 277 270 268 266 262 258 260 261 265 269 272 277 278 281 284 286 287 287 289 290 290 292 291 290 290 291 292 290 289 287 286 287 287 287
300 304 302 290 284 280 294 300 300 300 298 299 298 289 287 285 282 274 269 266 263 262 261 269 271 272 277 280 283 285 287 288 289 291 293 296 297 294 291 291 293 294 293 290 289 288 289 289 289
294 289 288 292 295 292 292 301 302 304 307 306 303 297 290 289 289 282 273 266 266 268 264 269 271 272 279 281 284 287 288 288 291 293 298 302 299 295 294 293 294 295 296 294 293 294 295 292 291
289 292 292 297 293 289 290 297 301 309 316 320 315 315 314 304 297 285 278 273 270 271 271 272 273 277 282 286 286 287 288 287 289 292 295 300 301 298 298 298 298 299 300 297 295 294 297 298 295
290 292 293 293 288 289 290 289 298 306 309 311 312 316 320 320 312 302 291 285 283 279 277 279 281 281 285 288 288 290 291 291 290 292 295 301 304 302 301 300 301 303 303 301 298 297 300 301 299
293 293 298 298 297 292 289 289 296 298 302 305 304 306 313 317 313 305 298 295 291 285 282 284 289 289 292 295 295 297 295 292 292 297 301 305 307 308 307 303 306 307 306 306 305 302 303 304 303
Height
5882 5883 5885 5887 5889 5891 5891 5890 5891 5891 5892 5893 5893 5893 5893 5894 5894 5896 5894 5892 5892 5892 5892 5892 5892 5892 5892 5892 5892 5892 5892 5892 5891 5891 5890 5890 5889 5889 5888 5888 5888 5887 5887 5886 5886 5885 5885 5885 5884
5879 5881 5883 5885 5887 5889 5889 5888 5888 5889 5890 5890 5891 5891 5891 5891 5891 5891 5891 5890 5890 5890 5890 5890 5890 5890 5890 5890 5890 5890 5890 5890 5890 5889 5889 5888 5887 5887 5887 5886 5886 5885 5885 5884 5884 5883 5883 5882 5882
5876 5878 5880 5882 5884 5886 5885 5885 5886 5886 5887 5888 5888 5889 5889 5889 5889 5889 5889 5889 5889 5888 5888 5888 5888 5888 5888 5888 5888 5888 5888 5888 5887 5887 5886 5886 5886 5885 5885 5884 5884 5883 5882 5882 5881 5881 5880 5880 5879
5873 5875 5878 5880 5881 5881 5882 5882 5883 5884 5885 5885 5886 5886 5886 5886 5886 5886 5886 5886 5886 5886 5886 5886 5887 5887 5886 5886 5886 5886 5886 5885 5885 5884 5884 5884 5883 5883 5882 5882 5881 5881 5880 5879 5879 5878 5878 5877 5877
5869 5872 5874 5876 5877 5878 5878 5879 5880 5881 5882 5882 5883 5883 5883 5884 5884 5884 5884 5884 5884 5884 5884 5884 5884 5884 5884 5884 5884 5884 5883 5883 5882 5882 5881 5881 5881 5880 5880 5879 5879 5878 5878 5877 5876 5876 5875 5874 5874
5866 5868 5871 5873 5874 5875 5875 5876 5877 5878 5879 5879 5880 5880 5881 5881 5881 5881 5882 5882 5882 5882 5882 5882 5882 5882 5882 5882 5881 5881 5880 5880 5879 5879 5879 5878 5878 5877 5877 5876 5876 5876 5875 5874 5873 5873 5872 5871 5871
5864 5865 5867 5869 5870 5871 5872 5873 5874 5875 5876 5877 5877 5878 5878 5878 5878 5879 5879 5879 5880 5880 5879 5879 5879 5879 5879 5879 5878 5878 5877 5877 5876 5876 5876 5876 5875 5875 5874 5873 5873 5872 5872 5871 5870 5869 5869 5868 5868
5860 5863 5864 5866 5867 5868 5869 5870 5870 5871 5872 5874 5874 5875 5875 5876 5876 5876 5876 5876 5877 5877 5877 5876 5876 5876 5876 5875 5875 5875 5874 5874 5873 5873 5873 5872 5872 5871 5871 5870 5869 5869 5868 5867 5866 5866 5865 5864 5864
5857 5860 5861 5862 5864 5865 5865 5866 5867 5868 5869 5870 5871 5872 5872 5872 5873 5873 5873 5873 5874 5874 5873 5873 5873 5873 5873 5872 5871 5871 5871 5871 5870 5870 5870 5869 5869 5868 5867 5866 5866 5865 5864 5863 5862 5862 5861 5860 5860
5854 5856 5858 5859 5860 5860 5861 5862 5864 5865 5866 5867 5868 5868 5868 5869 5869 5869 5870 5870 5870 5870 5870 5870 5870 5870 5869 5868 5868 5868 5868 5867 5867 5867 5866 5865 5865 5864 5863 5862 5861 5860 5859 5859 5858 5857 5856 5856 5856
5851 5852 5853 5854 5855 5856 5857 5858 5859 5861 5862 5863 5864 5865 5865 5865 5865 5866 5866 5867 5867 5867 5867 5867 5867 5866 5866 5865 5865 5865 5864 5864 5863 5863 5862 5861 5861 5860 5859 5858 5857 5856 5855 5854 5854 5853 5852 5851 5851
5848 5849 5850 5851 5851 5853 5854 5855 5856 5857 5859 5859 5860 5860 5861 5861 5862 5862 5862 5862 5862 5863 5863 5863 5863 5863 5863 5862 5861 5861 5861 5860 5859 5859 5858 5858 5857 5855 5854 5853 5852 5851 5850 5850 5849 5848 5847 5846 5845
5845 5846 5846 5847 5848 5849 5850 5851 5852 5853 5854 5855 5856 5856 5857 5857 5858 5858 5858 5858 5859 5859 5859 5859 5859 5859 5859 5858 5857 5857 5856 5856 5855 5855 5854 5854 5852 5851 5850 5849 5848 5847 5846 5845 5844 5843 5842 5841 5840
5841 5842 5843 5844 5845 5846 5847 5848 5849 5850 5850 5851 5852 5852 5852 5853 5854 5854 5854 5854 5854 5855 5855 5854 5855 5854 5854 5854 5853 5852 5852 5851 5851 5850 5850 5849 5847 5846 5845 5845 5843 5842 5841 5840 5839 5838 5837 5836 5835
5838 5839 5840 5841 5842 5843 5844 5844 5845 5846 5847 5847 5848 5848 5848 5849 5849 5850 5850 5850 5850 5850 5850 5850 5850 5850 5850 5849 5849 5848 5848 5848 5846 5846 5845 5844 5842 5841 5840 5840 5839 5837 5836 5835 5834 5833 5832 5831 5830
5836 5837 5839 5839 5839 5840 5842 5842 5842 5842 5843 5843 5843 5843 5844 5844 5845 5845 5846 5846 5846 5846 5846 5846 5846 5846 5845 5845 5845 5844 5844 5843 5842 5841 5840 5839 5837 5836 5835 5835 5834 5833 5831 5830 5829 5827 5826 5825 5824
5835 5836 5837 5837 5837 5837 5838 5838 5838 5838 5839 5839 5839 5839 5840 5840 5841 5841 5842 5842 5842 5842 5842 5842 5842 5842 5841 5841 5840 5840 5839 5838 5837 5837 5835 5834 5833 5831 5830 5830 5829 5827 5826 5825 5823 5822 5821 5820 5818
5834 5834 5834 5835 5835 5835 5835 5835 5835 5835 5835 5835 5835 5835 5835 5836 5836 5837 5837 5837 5837 5837 5837 5838 5838 5837 5837 5837 5836 5836 5835 5834 5833 5832 5831 5829 5828 5827 5825 5824 5823 5822 5821 5819 5818 5816 5815 5814 5813
5831 5832 5832 5833 5832 5832 5832 5832 5832 5832 5831 5831 5831 5831 5832 5832 5832 5832 5832 5833 5833 5833 5833 5833 5833 5833 5833 5832 5832 5831 5830 5829 5828 5827 5826 5824 5823 5822 5821 5819 5818 5817 5815 5814 5813 5811 5809 5809 5807
5829 5830 5830 5830 5830 5830 5830 5829 5829 5828 5828 5828 5828 5827 5828 5828 5828 5827 5828 5828 5828 5828 5829 5828 5828 5828 5827 5827 5827 5826 5825 5824 5823 5822 5820 5819 5819 5817 5816 5814 5813 5811 5810 5809 5807 5806 5804 5803 5802
5828 5828 5829 5828 5828 5827 5828 5827 5827 5826 5825 5825 5824 5824 5823 5823 5823 5823 5823 5823 5823 5823 5824 5823 5823 5823 5822 5822 5822 5821 5820 5820 5819 5817 5816 5815 5814 5812 5811 5809 5807 5806 5805 5803 5802 5801 5800 5798 5797
5827 5827 5827 5826 5826 5826 5827 5826 5824 5823 5823 5822 5821 5820 5819 5819 5818 5818 5818 5818 5819 5819 5819 5819 5819 5818 5818 5818 5817 5817 5816 5815 5814 5813 5811 5810 5809 5807 5806 5804 5802 5801 5799 5797 5796 5795 5794 5792 5791
5825 5825 5825 5825 5825 5825 5824 5824 5823 5821 5820 5819 5818 5817 5816 5815 5815 5814 5814 5814 5814 5814 5815 5815 5815 5814 5814 5814 5813 5812 5812 5810 5809 5808 5807 5805 5804 5802 5800 5798 5796 5795 5793 5791 5790 5789 5787 5786 5784
5824 5824 5824 5824 5824 5824 5823 5822 5821 5819 5818 5817 5815 5814 5812 5812 5811 5811 5810 5811 5811 5811 5811 5811 5811 5811 5810 5810 5809 5808 5807 5806 5805 5803 5802 5800 5799 5797 5795 5793 5791 5789 5787 5786 5785 5783 5781 5780 5778
5823 5824 5824 5824 5824 5823 5821 5820 5819 5817 5816 5814 5813 5811 5810 5809 5808 5808 5807 5807 5808 5808 5807 5807 5807 5807 5807 5806 5805 5804 5803 5802 5801 5799 5797 5795 5793 5791 5789 5787 5786 5784 5782 5781 5779 5777 5776 5774 5772
5822 5823 5824 5824 5823 5822 5819 5818 5817 5815 5814 5812 5810 5809 5808 5807 5806 5805 5805 5804 5804 5805 5804 5804 5804 5803 5803 5802 5801 5800 5799 5797 5796 5794 5792 5790 5788 5786 5784 5783 5781 5779 5777 5775 5773 5772 5770 5768 5766
5821 5821 5821 5821 5820 5819 5818 5817 5815 5813 5812 5810 5808 5807 5806 5805 5804 5803 5802 5802 5802 5801 5801 5801 5800 5800 5799 5798 5797 5795 5794 5792 5791 5789 5787 5785 5783 5781 5779 5778 5776 5774 5771 5769 5767 5765 5763 5761 5759
5820 5819 5819 5819 5818 5818 5817 5815 5814 5811 5810 5808 5806 5805 5804 5803 5801 5800 5799 5799 5799 5798 5798 5797 5797 5796 5795 5794 5793 5792 5790 5788 5787 5785 5783 5781 5779 5777 5775 5773 5771 5768 5766 5764 5762 5760 5757 5754 5752
5818 5818 5817 5816 5816 5816 5815 5815 5811 5809 5808 5806 5805 5803 5802 5801 5800 5798 5797 5796 5796 5795 5795 5794 5793 5793 5792 5791 5789 5788 5786 5784 5782 5781 5779 5777 5775 5772 5770 5768 5766 5763 5761 5758 5756 5754 5751 5748 5745
5816 5815 5815 5815 5813 5812 5812 5814 5808 5807 5805 5804 5803 5802 5801 5800 5798 5797 5795 5794 5794 5793 5792 5791 5790 5789 5788 5787 5785 5784 5782 5780 5779 5777 5775 5773 5770 5768 5766 5764 5762 5759 5756 5753 5751 5748 5745 5742 5739